Regional Weather Roundup
Issued by NWS

Home | Current Version | Previous Version | Text Only | Print | Product List | Glossary On
Versions: 1 2 3 4 5 6 7 8 9 10 11 12 13 14 15 16 17 18 19 20 21 22 23 24 25 26 27 28 29 30 31 32 33 34 35 36 37 38 39 40 41 42 43 44 45 46 47 48 49 50
000
ASCA42 TJSJ 211010
RWRPR
PUERTO RICO/U.S. VIRGIN ISLANDS HOURLY WEATHER ROUNDUP
NATIONAL WEATHER SERVICE SAN JUAN PR
600 AM AST TUE FEB 21 2017

PRZ001>002-007>008-010-211100-
PUERTO RICO

CITY           SKY/WX    TMP DP  RH WIND       PRES   REMARKS
SAN JUAN LMM   LGT RAIN  77  64  65 NW17G23   29.86R
CEIBA          PTCLDY    77  68  73 NW9G21    29.87R
$$

VIZ001>002-211100-
U.S. VIRGIN ISLANDS

CITY           SKY/WX    TMP DP  RH WIND       PRES   REMARKS
CHARLOTTE AMA  LGT RAIN  73  72  94 NW13      29.84R
CHRISTIANSTED  PTCLDY    75  70  83 W9        29.85S
$$

HOURLY WEATHER ROUNDUP FOR THE NEWS MEDIA

CITY           SKY/WX    TMP DP  RH WIND       PRES   REMARKS
ORLANDO        CLOUDY    62  61  96 CALM      30.10R
NEW YORK       PTCLDY    33  17  51 N6        30.40R WCI  28
NEWARK         CLOUDY    31  16  54 N7        30.38R WCI  24
CHICAGO        LGT RAIN  56  50  80 SW5       29.90S
HARTFORD       CLEAR     28  16  60 N3        30.36R
BOSTON         CLEAR     30  15  53 NW7       30.38S WCI  23
DALLAS         FOG       55  54  96 SW5       29.90S VSB 1/4
PHILADELPHIA   CLOUDY    34  17  50 NE7       30.37R WCI  28
LOS ANGELES    MOCLDY    59  56  89 NW3       30.32S
WASHINGTON DC  MOCLDY    40  22  48 E3        30.33R


USA.gov is the U.S. government's official web portal to all federal, state and local government web resources and services.